星链-4106 (STARLINK-4106 )

导读

STARLINK-4106是美国太空探索技术公司Starlink互联网卫星星座的成员,于2022年7月17日发射升空,归属发射国家美国。它加入星链组网,为全球尤其是偏远地区提供低延迟、高速率的宽带互联网服务,依托近地轨道部署,是星链持续扩展全球卫星互联网覆盖能力的重要组成部分。

基本信息
目录编号:
53145
目录名称:
STARLINK-4106
国际标识:
2022-083P
轨道中心:
EARTH
卫星名称:
星链-4106
卫星全名:
星链-4106 (STARLINK-4106 )
卫星状态:
在轨 (已飞行1431 天)
发射日期:
2022-07-17 UTC
国别 :
美国 (US)
星等 :
--
轨道信息
数据来源 国际轨道数据 AOE轨道数据
星历时间 2026-06-17T09:27:10+0800
10小时前
查看轨道信息
2026-06-14T01:00:00+0800
3天前
查看轨道信息
半长轴 6917.907km 6917.907km
偏心率 0.0001415 0.000138
轨道倾角 53.161° 53.160°
近地点辐角 95.217° 84.802°
升交点赤经 87.933° 103.002°
平近点角 264.898° 56.840°
近地点 538.791km 538.815km
远地点 540.749km 540.725km
周期 95.438分钟 95.438分钟
每日圈数 15.088315 15.088316
详细信息
固有亮度:
5
最大亮度:
2.5
卫星平台:
Starlink v1.5
覆盖范围:
全球
运营商:
太空探索技术公司
运营商所在国:
美国
制造商(研发单位):
太空探索技术公司
制造商所在国:
美国
使用方式:
暂无
卫星简介
星链(Starlink)计划是由太空探索技术公司(SpaceX)提出的一个巨型低轨卫星互联网星座项目,计划在2019年至2024年间在太空搭建由约1.2万颗卫星组成的“星链”网络,其中1584颗将部署在地球上空550千米处的近地轨道,并从2020年开始工作。该卫星仍在工作。
2D轨道图
3D轨道图
轨道高度分析图
轨道倾角分析图
轨道综合分析图
查看轨道综合分析图